This demonstration page uses our WeatherBlox Daily Observations layout. Learn more.

Left ArrowRight Arrow

34.74481, -87.66753

Hourly Observations for December 6, 2017

Temp ( °F °C ) Dew Point ( °F °C ) Humidity (%) Winds ( mph kmh ) Pressure ( in mb ) Visibility ( mi km ) Precip ( " mm )
12:53 am 00:53 Clear 39 3.9 26 -3.3 60 60 NNW 6 9 30.28 1026 10 16 0.00 0.00
1:53 am 01:53 Clear 39 3.9 25 -3.9 57 57 N 6 9 30.29 1026 10 16 0.00 0.00
2:53 am 02:53 Clear 38 3.3 25 -3.9 60 60 N 5 7 30.27 1025 10 16 0.00 0.00
3:53 am 03:53 Clear 38 3.3 25 -3.9 60 60 NNW 5 7 30.27 1025 10 16 0.00 0.00
4:53 am 04:53 Clear 37 2.8 24 -4.4 59 59 NNW 5 7 30.28 1026 10 16 0.00 0.00
5:53 am 05:53 Clear 37 2.8 26 -3.3 65 65 Calm 30.28 1026 10 16 0.00 0.00
6:53 am 06:53 Sunny 38 3.3 26 -3.3 62 62 Calm 30.29 1026 10 16 0.00 0.00
7:53 am 07:53 Sunny 39 3.9 27 -2.8 62 62 Calm 30.31 1026 10 16 0.00 0.00
8:53 am 08:53 Sunny 40 4.4 27 -2.8 60 60 SSW 3 6 30.32 1027 10 16 0.00 0.00
9:53 am 09:53 Sunny 42 5.6 28 -2.2 58 58 Calm 30.33 1027 10 16 0.00 0.00
10:53 am 10:53 Sunny 43 6.1 27 -2.8 53 53 NW 7 11 30.31 1026 10 16 0.00 0.00
11:53 am 11:53 Sunny 45 7.2 27 -2.8 49 49 NW 7 11 30.27 1025 10 16 0.00 0.00
12:53 pm 12:53 Sunny 48 8.9 25 -3.9 41 41 N 7 11 30.22 1023 10 16 0.00 0.00
1:53 pm 13:53 Sunny 48 8.9 23 -5 37 37 Calm 30.20 1023 10 16 0.00 0.00
2:53 pm 14:53 Sunny 48 8.9 24 -4.4 39 39 WNW 7 11 30.21 1023 10 16 0.00 0.00
3:53 pm 15:53 Sunny 47 8.3 25 -3.9 42 42 W 6 9 30.21 1023 10 16 0.00 0.00
4:53 pm 16:53 Clear 45 7.2 28 -2.2 52 52 WNW 5 7 30.21 1023 10 16 0.00 0.00
5:53 pm 17:53 Clear 45 7.2 28 -2.2 52 52 W 6 9 30.24 1024 10 16 0.00 0.00
6:53 pm 18:53 Clear 45 7.2 28 -2.2 52 52 W 6 9 30.24 1024 10 16 0.00 0.00
7:53 pm 19:53 Clear 44 6.7 29 -1.7 55 55 W 6 9 30.24 1024 10 16 0.00 0.00
8:53 pm 20:53 Clear 44 6.7 29 -1.7 55 55 WNW 5 7 30.24 1024 10 16 0.00 0.00
9:53 pm 21:53 Clear 43 6.1 29 -1.7 58 58 NW 7 11 30.24 1024 10 16 0.00 0.00
10:53 pm 22:53 Clear 43 6.1 30 -1.1 60 60 NW 5 7 30.24 1024 10 16 0.00 0.00
11:53 pm 23:53 Clear 42 5.6 30 -1.1 62 62 WNW 5 7 30.23 1024 10 16 0.00 0.00

Powered by AerisWeather